Bryce Canyon, UT

8:41 PM MDT on March 24, 2017 (GMT -0600)
Bryce Canyon

Weather History for KBCE - January, 2014

Change the Weather History Date:

Saturday, January 4, 2014

  Actual Average Record
Temperature  
Mean Temperature 22 °F -  
Max Temperature 35 °F 31 °F 53 °F (2001)
Min Temperature 8 °F 7 °F -18 °F (2004)
Degree Days  
Heating Degree Days 43    
Moisture  
Dew Point 9 °F    
Average Humidity 56    
Maximum Humidity 81    
Minimum Humidity 36    
Precipitation  
Precipitation 0.00 in - - ()
Sea Level Pressure  
Sea Level Pressure 29.96 in    
Wind  
Wind Speed 15 mph (WNW)    
Max Wind Speed 29 mph    
Max Gust Speed 39 mph    
Visibility 10 miles    
Events      
Averages and records for this station are not official NWS values.
T = Trace of Precipitation, MM = Missing Value Source: NWS Daily Summary

Daily Weather History Graph

Daily Weather History Graph

Search for Another Location

Airport or City:

Trip Planner

Search our weather history database for the weather conditions in past years. The results will help you decide how hot, cold, wet, or windy it might be!

Date:

Astronomy

Jan. 04, 2014 Rise Set
Actual Time 7:44 AM MST 5:23 PM MST
Civil Twilight 7:15 AM MST 5:52 PM MST
Nautical Twilight 6:42 AM MST 6:25 PM MST
Astronomical Twilight 6:10 AM MST 6:56 PM MST
Moon 9:56 AM MST (1/4) 9:42 PM MST (1/4)
Length of Visible Light 10h 37m
Length of Day
9h 39m
Waxing Crescent, 16% of the Moon is Illuminated
Jan 4
Waxing Crescent
Jan 7
First Quarter
Jan 15
Full
Jan 23
Last Quarter
Jan 30
New

Hourly Weather History & Observations

Time (MST) Temp. Windchill Dew Point Humidity Pressure Visibility Wind Dir Wind Speed Gust Speed Precip Events Conditions
12:53 AM 17.1 °F 11.7 °F 9.0 °F 71% 29.86 in 10.0 mi Variable 3.5 mph - N/A   Clear
1:25 AM 35.1 °F 25.2 °F 19.0 °F 52% 29.90 in 10.0 mi WNW 16.1 mph - N/A   Clear
1:53 AM 33.1 °F 22.6 °F 19.0 °F 56% 29.73 in 10.0 mi WNW 16.1 mph - N/A   Clear
2:53 AM 30.0 °F 20.5 °F 18.0 °F 61% 29.76 in 10.0 mi West 11.5 mph - N/A   Clear
3:53 AM 33.1 °F 24.9 °F 19.0 °F 56% 29.71 in 10.0 mi West 10.4 mph - N/A   Clear
4:53 AM 34.0 °F 23.0 °F 18.0 °F 52% 29.73 in 10.0 mi West 18.4 mph 24.2 mph N/A   Clear
5:53 AM 34.0 °F 23.8 °F 18.0 °F 52% 29.76 in 10.0 mi West 16.1 mph - N/A   Clear
6:53 AM 30.0 °F 18.7 °F 18.0 °F 61% 29.85 in 10.0 mi WNW 16.1 mph - N/A   Clear
7:53 AM 28.9 °F 15.8 °F 17.1 °F 61% 29.83 in 10.0 mi WNW 20.7 mph 31.1 mph N/A   Clear
8:53 AM 28.0 °F 14.3 °F 18.0 °F 66% 29.91 in 10.0 mi WNW 21.9 mph - N/A   Clear
9:53 AM 26.1 °F 13.1 °F 19.0 °F 75% 29.98 in 10.0 mi WNW 17.3 mph 28.8 mph N/A   Partly Cloudy
10:20 AM 25.0 °F 12.2 °F 19.9 °F 81% 29.97 in 10.0 mi West 16.1 mph - N/A   Mostly Cloudy
10:53 AM 26.1 °F 12.0 °F 19.0 °F 75% 30.02 in 10.0 mi WNW 20.7 mph - N/A   Mostly Cloudy
11:03 AM 26.1 °F 11.6 °F 19.0 °F 75% 29.97 in 10.0 mi West 21.9 mph - N/A   Scattered Clouds
11:53 AM 26.1 °F 11.0 °F 16.0 °F 66% 30.00 in 10.0 mi WNW 24.2 mph 39.1 mph N/A   Partly Cloudy
12:53 PM 25.0 °F 8.4 °F 14.0 °F 63% 29.99 in 10.0 mi NW 28.8 mph 35.7 mph N/A   Clear
1:53 PM 24.1 °F 7.4 °F 10.0 °F 55% 29.94 in 10.0 mi NNW 27.6 mph 38.0 mph N/A   Clear
2:53 PM 25.0 °F 9.9 °F 8.1 °F 49% 29.96 in 10.0 mi NW 23.0 mph 33.4 mph N/A   Clear
3:53 PM 23.0 °F 8.3 °F 3.0 °F 42% 29.98 in 10.0 mi WNW 19.6 mph 25.3 mph N/A   Clear
4:53 PM 21.0 °F 5.0 °F -2.0 °F 36% 29.99 in 10.0 mi NW 21.9 mph - N/A   Clear
5:53 PM 18.0 °F 4.2 °F -4.0 °F 38% 30.03 in 10.0 mi WNW 13.8 mph - N/A   Clear
6:53 PM 12.0 °F -2.0 °F -5.1 °F 46% 30.12 in 10.0 mi NW 11.5 mph - N/A   Clear
7:53 PM 10.9 °F -4.7 °F -6.0 °F 47% 30.13 in 10.0 mi NW 13.8 mph - N/A   Clear
8:53 PM 10.9 °F -5.4 °F -7.1 °F 44% 30.14 in 10.0 mi NW 15.0 mph - N/A   Clear
9:53 PM 10.9 °F -7.5 °F -6.0 °F 47% 30.14 in 10.0 mi WNW 19.6 mph - N/A   Clear
10:46 PM 10.0 °F -5.9 °F -9.0 °F 42% 30.10 in 10.0 mi NNW 13.8 mph - N/A   Clear
10:53 PM 9.0 °F -7.3 °F -9.0 °F 44% 30.17 in 10.0 mi NNW 13.8 mph - N/A   Clear
11:53 PM 8.1 °F -8.4 °F -8.0 °F 48% 30.19 in 10.0 mi NNW 13.8 mph - N/A   Clear